Theta_e
319 319 319 319 319 319 318 318 318 318 319 318 318 318 319 319 318 319 319 320 319 319 320 321 323 325 325 320 320 347 360 364 357 351 346 341 334 327 324 328 327 323 326 328 329 327 328
320 319 319 320 319 318 318 318 318 318 318 318 318 318 319 319 319 319 319 319 318 318 319 322 324 325 323 314 342 342 335 344 346 345 344 340 334 333 328 327 325 327 327 326 329 326 327
320 320 319 319 318 318 318 318 318 317 317 318 318 319 319 319 318 319 319 318 317 318 320 323 327 327 319 318 333 347 343 342 345 344 339 339 338 331 332 329 332 329 323 326 326 328 324
319 319 319 319 318 319 318 318 318 318 318 318 318 318 318 318 318 318 317 316 316 319 323 328 330 326 316 325 330 338 342 340 344 344 341 337 337 335 328 331 329 322 322 318 326 327 326
319 319 318 318 318 318 318 318 318 318 318 318 318 318 318 317 317 316 315 315 317 322 327 331 324 324 314 323 320 338 340 337 340 341 340 339 336 331 329 326 318 320 313 315 320 327 327
319 319 319 318 318 318 318 318 318 318 317 317 317 317 317 316 316 314 313 315 325 323 329 330 328 319 318 314 318 323 340 338 336 335 333 331 329 325 322 319 308 312 312 317 318 324 325
319 320 320 318 318 318 318 318 318 317 317 317 316 316 316 315 314 313 314 325 322 319 323 314 316 315 316 320 322 321 337 335 334 332 323 327 321 317 321 321 319 316 317 316 322 324 322
319 319 319 318 317 317 318 317 317 317 317 316 316 315 315 314 313 312 313 320 318 319 313 322 320 318 318 321 314 320 330 323 326 322 325 322 318 324 328 324 320 318 315 316 322 324 320
320 319 318 317 317 318 317 316 316 316 316 316 315 315 314 313 312 315 320 321 325 324 313 315 319 317 316 318 315 316 323 322 323 320 321 317 321 327 325 323 321 320 319 320 319 322 324
320 319 317 317 317 317 316 316 316 316 315 315 315 314 313 311 311 317 318 324 325 325 308 311 314 315 318 317 312 321 323 322 320 316 320 319 326 324 322 319 321 315 324 322 322 319 313
319 317 317 317 317 317 316 316 315 315 314 314 314 313 312 309 314 315 319 322 324 322 300 314 314 321 318 313 314 315 323 321 316 317 319 318 322 321 318 319 323 319 324 323 323 318 317
318 317 317 317 317 316 315 315 315 314 314 314 313 312 310 315 317 318 319 321 321 306 299 308 313 311 311 312 313 315 317 322 323 318 320 320 326 324 321 323 326 323 321 322 322 317 304
317 316 316 317 316 316 315 315 315 314 313 312 311 309 309 316 316 321 319 318 306 302 312 308 309 312 310 309 310 312 312 312 311 309 311 317 320 323 326 321 326 324 319 310 309 308 303
317 317 317 317 316 316 316 315 314 313 312 311 308 307 314 318 320 320 317 311 302 309 309 313 311 311 307 310 309 310 310 309 314 315 312 310 309 320 324 321 319 320 316 306 299 299 304
317 317 317 317 316 316 316 315 314 313 312 309 307 322 322 324 324 321 312 303 306 310 312 309 311 308 307 309 309 308 309 309 312 315 310 311 312 322 324 325 325 317 310 318 311 309 306
317 317 317 317 316 316 316 315 314 313 311 308 312 319 321 323 323 315 307 302 309 314 313 311 306 309 306 308 307 307 307 312 311 316 319 316 311 319 322 324 324 322 321 309 310 306 299
317 317 317 317 316 316 316 315 314 312 310 309 314 313 321 322 318 310 302 306 310 315 314 309 307 308 309 308 309 307 307 311 314 314 317 317 314 314 321 318 317 319 318 318 314 313 304
316 316 316 316 316 316 316 315 313 311 309 310 315 308 322 321 308 308 305 307 306 310 314 312 311 310 309 311 309 308 307 310 314 315 312 317 314 312 314 323 323 321 318 318 312 310 311
314 314 314 314 315 315 315 314 313 311 310 308 309 310 319 317 303 306 310 309 309 308 309 310 309 310 311 309 307 310 310 314 315 314 312 315 313 307 309 317 321 318 320 320 318 317 312
313 313 313 314 315 315 315 314 312 311 310 309 311 304 312 315 313 307 305 306 307 312 308 309 309 311 309 307 310 309 311 313 315 315 326 317 312 310 307 312 319 316 318 320 314 309 311
314 314 313 313 313 314 315 314 313 312 310 310 313 308 310 305 306 306 308 309 307 305 311 311 307 307 307 305 307 307 311 313 314 322 316 313 308 312 315 317 319 318 317 317 315 315 310
313 312 312 312 313 313 314 314 314 312 309 312 305 304 307 304 304 302 301 302 302 305 308 307 307 307 308 306 308 307 310 311 311 314 313 313 308 311 310 314 317 313 317 318 319 318 314
312 312 312 312 312 313 313 314 314 313 310 311 311 311 306 301 301 300 301 302 303 306 307 309 309 309 308 309 312 312 314 315 314 313 312 310 309 309 306 313 314 309 316 317 319 321 319
312 312 312 312 312 312 313 314 314 314 312 309 310 308 302 298 300 299 300 302 302 303 302 307 309 311 315 320 318 314 312 312 314 314 315 310 311 311 307 312 302 313 322 321 320 321 322
312 312 312 312 312 313 313 314 314 314 314 309 310 307 303 297 300 300 300 300 301 303 302 304 307 312 318 315 310 307 307 306 309 313 314 315 310 308 305 306 313 315 318 317 316 319 324
312 312 312 312 312 312 313 313 313 314 314 310 310 311 305 298 298 302 300 301 298 299 300 302 308 311 312 309 309 303 300 303 303 307 314 315 315 310 309 305 304 315 321 324 325 314 325
312 312 312 312 312 312 313 313 313 313 313 310 309 312 307 299 303 303 299 299 302 300 298 301 303 307 311 305 304 304 303 309 302 304 307 308 312 308 308 307 310 318 321 325 312 316 327
312 312 311 312 312 312 312 312 312 312 312 310 308 312 306 302 303 305 305 300 302 300 295 301 301 304 304 302 305 306 305 308 307 311 310 308 307 307 311 308 306 322 321 317 326 328 330
312 311 311 311 311 311 311 311 311 312 312 311 304 310 316 306 302 308 308 309 307 305 302 299 302 301 299 304 309 310 307 309 309 305 313 307 311 310 310 311 328 327 325 327 327 333 330
Wind_Speed
13 13 13 14 15 15 15 16 16 17 17 19 20 21 21 23 23 22 22 22 22 23 21 19 20 16 11 9 14 9 10 8 13 14 18 13 18 3 7 2 3 13 15 13 15 14 11
13 14 14 15 15 16 16 17 17 18 18 19 19 19 20 21 23 23 22 22 23 23 21 17 17 13 7 13 12 11 14 12 14 15 21 16 22 25 8 17 15 13 16 11 15 12 11
13 14 15 16 16 16 17 17 18 19 20 20 20 20 20 21 23 24 24 23 24 23 20 15 12 7 11 15 1 15 13 16 17 19 21 6 10 17 14 11 11 15 13 10 11 10 14
13 14 15 15 16 17 18 18 19 19 19 20 21 22 22 23 23 24 24 24 24 22 17 13 7 9 9 13 7 10 13 15 17 14 15 8 6 17 14 15 11 26 10 5 11 9 12
12 13 14 15 16 17 17 18 20 20 20 21 22 23 24 24 25 24 25 26 24 18 13 7 7 10 14 5 11 11 17 16 17 13 11 10 10 13 16 8 14 11 7 15 12 15 13
11 12 13 15 16 17 17 18 19 20 21 22 23 24 25 26 26 24 27 26 9 11 9 10 12 10 12 14 14 17 17 16 12 14 12 13 12 13 11 14 5 3 17 13 11 11 16
10 12 12 15 16 16 17 18 19 20 21 22 23 24 25 26 27 23 16 3 6 7 12 13 7 15 12 18 15 18 17 16 15 14 15 17 14 1 19 27 22 28 21 25 15 11 11
11 12 12 14 15 17 17 18 19 20 21 22 23 24 26 27 28 26 9 8 7 7 10 20 21 18 4 6 10 17 17 17 17 17 17 18 16 9 22 32 29 28 23 27 17 13 9
10 10 12 14 15 16 17 18 19 19 20 22 22 23 25 28 29 13 11 6 7 9 8 14 21 18 13 8 15 19 20 21 16 19 20 19 1 7 14 25 28 28 29 15 16 10 10
11 11 12 13 15 16 17 18 19 20 21 22 22 23 24 28 9 11 6 3 7 6 7 13 19 19 19 16 19 19 23 21 21 21 22 19 11 15 14 13 12 5 16 7 15 11 5
10 12 13 13 15 16 17 18 20 21 22 23 23 23 23 8 13 6 10 9 9 7 8 16 15 9 15 23 6 22 23 24 23 21 21 19 15 15 13 4 9 10 31 19 16 14 9
11 12 12 14 15 17 17 19 20 22 24 25 24 22 21 4 8 13 10 10 8 7 9 9 10 13 19 17 23 20 23 23 23 24 22 22 9 18 14 7 14 9 14 21 7 8 9
11 12 13 14 15 17 18 19 22 24 26 27 27 21 11 9 3 11 9 8 7 11 9 12 17 17 19 20 22 20 22 25 23 20 21 20 16 7 4 9 14 9 13 7 12 5 7
11 12 13 14 16 17 18 20 22 24 26 29 32 24 8 8 9 8 8 7 8 10 18 9 1 16 20 19 22 20 24 20 27 26 16 18 12 17 11 18 8 10 14 8 7 6 3
12 12 12 14 16 18 20 21 23 25 28 28 33 5 7 9 7 5 7 10 8 11 15 5 8 11 16 20 17 21 22 23 23 26 25 19 22 18 13 16 11 6 6 15 11 16 7
12 12 13 13 16 18 20 22 24 27 30 31 10 11 3 3 4 6 7 13 14 13 8 10 13 10 13 19 22 23 23 22 23 28 26 25 15 18 16 15 15 21 17 10 7 8 2
13 14 14 14 16 18 19 21 24 26 31 35 6 6 7 6 5 6 9 13 15 12 2 7 13 19 17 14 20 21 24 21 24 25 28 26 12 17 12 15 15 14 10 8 6 7 7
13 13 14 15 15 16 18 20 22 24 30 13 7 5 7 4 7 7 11 16 16 14 10 5 14 15 18 16 15 21 22 22 21 23 29 27 20 19 23 20 17 18 16 19 11 8 7
13 13 14 14 15 16 17 18 20 20 17 10 7 8 6 5 7 8 12 15 12 16 11 10 11 13 15 15 17 18 21 21 18 21 25 23 21 10 11 27 19 15 14 15 6 8 0
13 13 14 15 15 16 16 17 19 19 16 10 7 5 6 7 8 12 15 14 17 12 12 13 19 16 17 12 15 18 16 18 11 10 8 7 20 21 15 24 14 21 19 5 15 7 7
14 14 13 14 15 16 16 17 20 20 19 7 6 4 6 7 11 16 17 17 17 17 15 13 11 17 18 16 14 18 18 21 10 8 10 11 19 24 18 21 27 11 14 13 15 22 3
12 13 13 13 15 16 16 17 20 22 28 6 6 6 11 12 16 16 13 15 18 18 19 18 16 15 17 19 17 17 18 20 16 14 16 16 17 19 24 22 14 10 20 28 16 23 7
12 12 12 13 14 15 15 14 16 18 18 6 9 10 7 7 12 13 13 16 18 17 17 18 20 21 16 18 17 22 22 16 17 15 16 20 16 19 19 14 18 7 26 22 22 26 25
12 12 12 12 13 13 14 13 13 13 11 9 8 8 8 10 11 12 16 18 17 18 20 23 20 18 20 25 24 20 22 23 20 20 20 21 21 15 15 9 9 11 24 28 16 5 18
12 12 12 12 12 12 12 12 11 11 10 9 9 5 7 8 12 13 14 16 17 17 19 22 23 19 19 22 19 17 18 22 22 18 16 21 19 15 15 18 10 23 22 2 3 15 22
12 12 12 11 11 12 11 11 11 10 10 8 8 1 4 7 6 15 13 13 12 13 16 20 20 17 21 13 15 21 18 15 21 18 20 22 15 14 15 21 24 17 19 22 31 9 12
11 11 11 11 11 11 11 11 10 10 8 8 9 9 5 5 15 16 11 10 11 12 12 15 17 15 18 12 16 19 19 17 19 24 19 16 15 16 15 16 20 18 23 25 13 8 10
11 12 11 11 12 12 11 11 11 11 10 7 9 8 6 7 16 22 21 17 12 11 10 11 11 9 9 8 14 15 13 18 21 21 23 20 16 14 14 15 16 19 18 19 8 13 14
12 12 12 12 13 12 12 12 12 12 11 8 10 10 1 3 10 20 21 20 15 16 13 7 10 6 4 6 9 12 13 15 17 18 20 22 19 14 15 12 8 11 13 8 15 6 13
Wind_Direction
6 6 1 357 359 359 356 353 350 348 344 342 339 336 333 331 328 327 324 318 314 312 309 311 306 319 312 224 256 126 149 168 185 213 245 254 143 143 233 6 8 114 108 127 137 96 122
1 359 357 355 360 357 354 352 348 346 342 339 335 332 330 328 325 323 320 315 311 309 306 306 300 310 248 246 106 135 166 171 190 210 243 253 145 192 204 84 279 120 128 135 114 143 134
356 355 357 359 358 356 352 349 347 344 341 338 333 332 329 325 323 321 317 314 309 306 302 298 292 268 259 244 218 164 169 194 213 210 249 251 318 32 22 173 185 112 132 154 126 151 135
3 359 358 356 353 350 348 346 344 341 339 336 332 331 330 325 322 319 315 312 306 301 296 288 254 241 262 228 260 189 190 206 221 239 269 323 293 136 94 279 60 29 21 172 138 151 131
1 358 356 353 350 349 347 344 341 339 338 335 332 331 329 326 322 321 315 307 299 292 280 279 206 229 242 114 223 219 213 213 218 241 250 278 268 248 168 170 32 46 255 264 160 149 181
356 350 351 351 348 346 344 342 339 336 336 334 332 331 328 325 321 323 319 294 282 303 225 234 259 247 249 214 209 219 215 230 220 232 230 239 248 236 49 39 110 276 224 265 172 163 202
340 338 344 350 346 345 343 340 337 335 335 333 331 329 325 323 319 323 331 284 208 197 236 224 184 229 305 211 184 205 204 219 215 226 232 224 239 73 150 139 214 207 225 254 148 178 172
338 346 358 351 348 345 341 338 335 333 332 330 329 327 324 321 317 316 279 263 38 342 293 235 253 221 250 144 188 194 198 216 215 224 225 249 228 173 148 170 190 186 219 244 136 193 91
344 358 356 351 349 343 339 337 334 330 329 328 327 326 325 321 316 291 255 11 321 319 259 252 221 228 188 218 226 207 204 213 217 230 233 244 155 183 166 190 192 192 209 176 146 164 163
356 3 354 353 347 342 338 335 332 329 327 325 325 326 325 326 298 334 276 38 314 322 274 213 191 212 213 213 224 234 206 212 229 227 237 243 241 224 215 234 228 48 322 268 165 133 215
10 359 354 350 343 340 337 333 331 329 326 324 324 324 318 332 313 296 6 316 324 261 270 129 168 198 203 208 205 221 196 215 224 227 235 245 187 244 246 253 49 161 232 258 190 156 137
2 356 350 345 343 338 335 332 331 328 325 322 322 321 322 190 210 259 305 305 269 232 244 149 135 181 196 199 233 192 200 210 232 247 244 258 205 221 225 205 133 184 228 243 195 74 67
357 353 348 344 341 337 335 334 332 330 326 322 319 314 300 305 338 344 305 260 224 248 124 154 170 185 207 195 221 219 202 197 219 228 243 244 229 223 141 240 154 194 215 253 189 69 192
352 349 344 340 339 338 337 336 334 331 327 324 319 313 214 245 302 290 274 237 256 225 247 86 300 179 204 201 211 220 194 208 211 232 230 231 202 229 157 249 188 68 122 123 317 279 162
347 346 344 342 341 340 338 338 335 332 329 328 312 193 223 170 221 283 253 226 241 291 355 20 190 257 193 213 203 225 213 205 212 223 235 222 218 201 191 228 197 29 2 147 123 250 270
342 341 336 345 343 341 339 339 338 335 332 328 315 285 195 46 221 230 242 260 306 345 2 337 294 204 240 204 211 205 226 209 216 214 238 255 231 220 185 210 242 146 174 116 194 243 145
347 345 351 350 343 341 340 341 339 337 335 320 263 251 100 152 214 231 244 246 267 286 184 278 274 290 299 241 213 213 221 223 208 219 225 247 257 299 215 218 211 148 174 185 139 249 159
352 352 346 342 343 343 344 342 339 342 339 335 297 281 118 228 243 231 249 256 272 294 298 253 277 283 292 303 284 224 221 229 210 218 217 231 243 197 261 218 215 247 220 208 219 127 184
344 345 346 346 344 343 344 341 338 341 1 320 292 293 137 239 257 242 267 260 261 284 284 269 268 265 277 287 291 289 228 234 236 213 229 216 232 240 303 302 194 231 246 254 64 97 191
341 342 343 343 343 344 344 341 335 337 343 322 278 297 186 191 264 285 288 292 296 281 237 285 285 284 272 265 275 280 282 230 238 248 22 262 238 231 200 241 251 208 225 223 101 30 269
335 332 334 339 342 345 347 345 336 336 334 297 251 3 35 301 316 348 323 322 311 299 299 262 256 264 272 264 251 261 262 274 174 253 271 255 245 246 206 218 236 304 285 207 132 191 175
328 335 338 339 339 342 344 346 340 340 333 250 336 354 349 307 297 288 276 270 275 281 285 278 273 257 262 260 269 255 248 256 264 205 237 244 252 256 252 240 39 329 292 295 185 149 136
324 327 331 335 335 337 339 343 341 345 342 305 16 332 302 294 295 290 283 291 292 300 285 285 291 297 264 267 263 270 280 286 259 253 229 236 236 241 248 224 133 289 261 274 257 140 153
318 321 324 328 331 333 333 334 335 339 350 320 344 310 295 289 291 296 311 315 306 303 308 304 321 309 303 333 302 270 271 271 267 263 236 221 228 238 243 143 221 225 258 262 274 253 156
316 318 320 324 326 327 333 335 343 338 340 307 311 333 317 289 302 300 298 301 300 295 294 294 288 291 306 308 298 265 253 244 249 255 261 259 216 228 235 243 225 196 234 221 290 263 160
312 313 316 319 321 321 322 324 329 340 348 295 290 280 280 307 270 353 320 307 297 295 293 285 283 284 271 275 274 253 233 220 221 237 250 258 252 225 214 239 232 225 187 227 209 215 130
303 306 309 313 316 316 317 320 320 325 328 311 296 295 277 259 274 276 275 300 322 322 310 297 309 310 298 255 257 251 221 236 221 213 219 235 251 243 228 222 240 236 237 201 206 207 136
301 303 305 310 310 308 309 308 306 307 309 307 297 297 280 279 280 283 284 282 279 268 270 298 321 240 268 252 249 250 225 214 237 240 207 214 226 235 231 231 222 235 245 209 196 192 238
299 298 299 305 305 302 301 300 297 293 291 296 282 273 327 242 280 309 292 289 279 276 267 238 271 297 296 307 276 285 237 216 215 233 224 212 217 226 229 234 250 262 250 224 240 187 187